User: anonymous   Login
Location: Aytr�
(46.1357°N, 1.1145°W)
Time: 13:49:34
(UTC+00:00)
Language:

GP-B - Orbit

View from above orbital plane
View from above orbital plane
View from above satellite
View from above satellite

Ground track
Ground track

The orbit data is extracted from the following two-line orbital elements,

1 28230U 04014A   21132.16215795  .00000103  00000-0  11696-4 0  9990
2 28230  89.8134  91.0382 0003321  94.3210 265.8392 14.78806566919668
Epoch (UTC): 12 May 2021 03:53:30
Eccentricity: 0.0003321
inclination: 89.8134°
perigee height: 631 km
apogee height: 635 km
right ascension of ascending node: 91.0382°
argument of perigee: 94.3210°
revolutions per day: 14.78806566
mean anomaly at epoch: 265.8392°
orbit number at epoch: 91966

The dashed part of the orbit path shows where the satellite is in the earth's shadow,  

DLR